Change the Weather History Date:

Sunday, February 24, 2013

  Actual Average Record
Temperature  
Mean Temperature 27 °F -  
Max Temperature 37 °F 44 °F 66 °F (2006)
Min Temperature 17 °F 25 °F 1 °F (2003)
Degree Days  
Heating Degree Days 38    
Moisture  
Dew Point 22 °F    
Average Humidity 71    
Maximum Humidity 80    
Minimum Humidity 60    
Precipitation  
Precipitation 0.01 in - - ()
Sea Level Pressure  
Sea Level Pressure 29.87 in    
Wind  
Wind Speed 11 mph (ESE)    
Max Wind Speed 15 mph    
Max Gust Speed 21 mph    
Visibility 10 miles    
Events      
Averages and records for this station are not official NWS values.
T = Trace of Precipitation, MM = Missing Value Source: NWS Daily Summary

Daily Weather History Graph

Daily Weather History Graph

Search for Another Location

Airport or City:

Trip Planner

Search our weather history database for the weather conditions in past years. The results will help you decide how hot, cold, wet, or windy it might be!

Date:

Astronomy

Feb. 24, 2013 Rise Set
Actual Time 7:07 AM CST 6:17 PM CST
Civil Twilight 6:40 AM CST 6:44 PM CST
Nautical Twilight 6:10 AM CST 7:14 PM CST
Astronomical Twilight 5:39 AM CST 7:45 PM CST
Moon 5:30 PM CST (2/24) 6:04 AM CST (2/24)
Length of Visible Light 12h 03m
Length of Day
11h 10m
Waxing Gibbous, 99% of the Moon is Illuminated
Feb 24
Waxing Gibbous
Feb 25
Full
Mar 4
Last Quarter
Mar 11
New
Mar 19
First Quarter

Hourly Weather History & Observations

Time (CST) Temp. Windchill Dew Point Humidity Pressure Visibility Wind Dir Wind Speed Gust Speed Precip Events Conditions
12:15 AM 23.0 °F 12.4 °F 17.6 °F 80% 29.91 in 10.0 mi SSE 10.4 mph - N/A   Clear
12:35 AM 21.2 °F 9.5 °F 15.8 °F 80% 29.90 in 10.0 mi SE 11.5 mph - N/A   Clear
12:55 AM 21.2 °F 9.5 °F 15.8 °F 80% 29.90 in 10.0 mi SE 11.5 mph - N/A   Clear
1:15 AM 21.2 °F 10.1 °F 15.8 °F 80% 29.90 in 10.0 mi SE 10.4 mph - N/A   Clear
1:35 AM 21.2 °F 10.1 °F 15.8 °F 80% 29.91 in 10.0 mi SE 10.4 mph - N/A   Clear
1:55 AM 21.2 °F 10.1 °F 14.0 °F 74% 29.91 in 10.0 mi SSE 10.4 mph - N/A   Clear
2:15 AM 21.2 °F 10.1 °F 15.8 °F 80% 29.91 in 10.0 mi SSE 10.4 mph - N/A   Clear
2:35 AM 21.2 °F 8.9 °F 15.8 °F 80% 29.90 in 10.0 mi SSE 12.7 mph - N/A   Clear
2:55 AM 21.2 °F 10.1 °F 15.8 °F 80% 29.89 in 10.0 mi SSE 10.4 mph - N/A   Clear
3:15 AM 23.0 °F 12.4 °F 15.8 °F 74% 29.88 in 10.0 mi SE 10.4 mph - N/A   Clear
3:35 AM 21.2 °F 10.1 °F 14.0 °F 74% 29.88 in 10.0 mi SE 10.4 mph - N/A   Clear
3:55 AM 23.0 °F 11.7 °F 15.8 °F 74% 29.87 in 10.0 mi SE 11.5 mph - N/A   Clear
4:15 AM 21.2 °F 10.1 °F 15.8 °F 80% 29.87 in 10.0 mi SE 10.4 mph - N/A   Clear
4:35 AM 23.0 °F 13.1 °F 15.8 °F 74% 29.88 in 10.0 mi SE 9.2 mph - N/A   Clear
4:55 AM 21.2 °F 10.1 °F 15.8 °F 80% 29.88 in 10.0 mi SE 10.4 mph - N/A   Clear
5:15 AM 23.0 °F 13.1 °F 15.8 °F 74% 29.89 in 10.0 mi SE 9.2 mph - N/A   Clear
5:35 AM 23.0 °F 13.1 °F 15.8 °F 74% 29.90 in 10.0 mi ESE 9.2 mph - N/A   Clear
5:55 AM 23.0 °F 13.9 °F 15.8 °F 74% 29.90 in 10.0 mi ESE 8.1 mph - N/A   Clear
6:15 AM 23.0 °F 12.4 °F 15.8 °F 74% 29.89 in 10.0 mi ESE 10.4 mph - N/A   Clear
6:35 AM 24.8 °F 14.6 °F 17.6 °F 74% 29.90 in 10.0 mi ESE 10.4 mph - N/A   Clear
6:55 AM 24.8 °F 14.6 °F 17.6 °F 74% 29.90 in 10.0 mi ESE 10.4 mph - N/A   Clear
7:15 AM 19.4 °F 8.6 °F 14.0 °F 80% 29.90 in 9.0 mi East 9.2 mph - N/A   Clear
7:35 AM 17.6 °F 7.3 °F 10.4 °F 73% 29.90 in 7.0 mi East 8.1 mph - N/A   Clear
7:55 AM 21.2 °F 11.7 °F 15.8 °F 80% 29.90 in 9.0 mi ESE 8.1 mph - N/A   Clear
8:15 AM 24.8 °F 15.3 °F 17.6 °F 74% 29.91 in 10.0 mi ESE 9.2 mph - N/A   Clear
8:35 AM 26.6 °F 17.5 °F 17.6 °F 69% 29.92 in 10.0 mi ESE 9.2 mph - N/A   Clear
8:55 AM 26.6 °F 15.7 °F 17.6 °F 69% 29.91 in 10.0 mi ESE 12.7 mph - N/A   Clear
9:15 AM 28.4 °F 18.5 °F 19.4 °F 69% 29.92 in 10.0 mi ESE 11.5 mph - N/A   Clear
9:35 AM 30.2 °F 19.8 °F 19.4 °F 64% 29.92 in 10.0 mi SE 13.8 mph - N/A   Clear
9:55 AM 32.0 °F 22.5 °F 21.2 °F 64% 29.92 in 10.0 mi ESE 12.7 mph - N/A   Clear
10:15 AM 33.8 °F 24.3 °F 21.2 °F 60% 29.92 in 10.0 mi ESE 13.8 mph - N/A   Clear
10:35 AM 33.8 °F 24.8 °F 21.2 °F 60% 29.91 in 10.0 mi ESE 12.7 mph - N/A   Clear
10:55 AM 35.6 °F 27.5 °F 23.0 °F 60% 29.90 in 10.0 mi ESE 11.5 mph - N/A   Scattered Clouds
11:15 AM 35.6 °F 29.2 °F 23.0 °F 60% 29.90 in 10.0 mi ESE 8.1 mph - N/A   Mostly Cloudy
11:35 AM 35.6 °F 27.5 °F 24.8 °F 65% 29.89 in 10.0 mi ESE 11.5 mph - 0.01 in   Scattered Clouds
11:55 AM 35.6 °F 26.6 °F 24.8 °F 65% 29.88 in 10.0 mi ESE 13.8 mph - 0.01 in   Clear
12:15 PM 37.4 °F 29.8 °F 24.8 °F 60% 29.87 in 10.0 mi ESE 11.5 mph - N/A   Clear
12:35 PM 37.4 °F 30.3 °F 24.8 °F 60% 29.86 in 10.0 mi East 10.4 mph - N/A   Clear
12:55 PM 37.4 °F 29.3 °F 24.8 °F 60% 29.85 in 10.0 mi East 12.7 mph - N/A   Clear
1:15 PM 37.4 °F 29.8 °F 26.6 °F 65% 29.84 in 10.0 mi ESE 11.5 mph - N/A   Clear
1:35 PM 37.4 °F 29.8 °F 26.6 °F 65% 29.84 in 10.0 mi ESE 11.5 mph - N/A   Clear
1:55 PM 37.4 °F 29.3 °F 26.6 °F 65% 29.83 in 10.0 mi ESE 12.7 mph - N/A   Clear
2:15 PM 37.4 °F 28.5 °F 26.6 °F 65% 29.83 in 10.0 mi ESE 15.0 mph 18.4 mph N/A   Clear
2:35 PM 37.4 °F 29.8 °F 26.6 °F 65% 29.83 in 10.0 mi ESE 11.5 mph - N/A   Clear
2:55 PM 37.4 °F 30.8 °F 26.6 °F 65% 29.83 in 10.0 mi East 9.2 mph - N/A   Clear
3:15 PM 37.4 °F 30.3 °F 26.6 °F 65% 29.82 in 10.0 mi East 10.4 mph - N/A   Clear
3:35 PM 37.4 °F 30.8 °F 26.6 °F 65% 29.82 in 10.0 mi East 9.2 mph - N/A   Clear
3:55 PM 37.4 °F 29.8 °F 26.6 °F 65% 29.82 in 10.0 mi East 11.5 mph - N/A   Clear
4:15 PM 37.4 °F 29.8 °F 26.6 °F 65% 29.81 in 10.0 mi East 11.5 mph - N/A   Partly Cloudy
4:35 PM 37.4 °F 29.3 °F 28.4 °F 70% 29.81 in 10.0 mi ENE 12.7 mph 18.4 mph N/A   Partly Cloudy
4:55 PM 37.4 °F 29.8 °F 28.4 °F 70% 29.81 in 10.0 mi ENE 11.5 mph 17.3 mph N/A   Clear
5:15 PM 37.4 °F 29.8 °F 26.6 °F 65% 29.81 in 10.0 mi ENE 11.5 mph 17.3 mph N/A   Clear
5:35 PM 37.4 °F 29.3 °F 26.6 °F 65% 29.81 in 10.0 mi ENE 12.7 mph 20.7 mph N/A   Clear
5:55 PM 37.4 °F 29.3 °F 26.6 °F 65% 29.82 in 10.0 mi ENE 12.7 mph - N/A   Scattered Clouds
6:15 PM 35.6 °F 27.1 °F 26.6 °F 70% 29.82 in 10.0 mi ENE 12.7 mph - N/A   Partly Cloudy
6:35 PM 35.6 °F 27.5 °F 28.4 °F 75% 29.83 in 10.0 mi ENE 11.5 mph 18.4 mph N/A   Mostly Cloudy
6:55 PM 35.6 °F 27.5 °F 28.4 °F 75% 29.84 in 10.0 mi ENE 11.5 mph 17.3 mph N/A   Overcast
7:15 PM 35.6 °F 27.1 °F 28.4 °F 75% 29.85 in 10.0 mi ENE 12.7 mph - N/A   Overcast
7:35 PM 35.6 °F 27.1 °F 28.4 °F 75% 29.86 in 10.0 mi ENE 12.7 mph 17.3 mph N/A   Overcast
7:55 PM 35.6 °F 27.5 °F 28.4 °F 75% 29.86 in 10.0 mi East 11.5 mph - N/A   Overcast
8:15 PM 35.6 °F 27.1 °F 26.6 °F 70% 29.87 in 10.0 mi ENE 12.7 mph - N/A   Overcast
8:35 PM 35.6 °F 27.5 °F 26.6 °F 70% 29.86 in 10.0 mi ENE 11.5 mph - N/A   Overcast
8:55 PM 35.6 °F 27.1 °F 28.4 °F 75% 29.86 in 10.0 mi ENE 12.7 mph - N/A   Overcast
9:15 PM 35.6 °F 28.0 °F 26.6 °F 70% 29.87 in 10.0 mi East 10.4 mph - N/A   Overcast
9:35 PM 35.6 °F 28.6 °F 28.4 °F 75% 29.87 in 10.0 mi ENE 9.2 mph - N/A   Overcast
9:55 PM 35.6 °F 28.0 °F 28.4 °F 75% 29.87 in 10.0 mi ENE 10.4 mph - N/A   Overcast
10:15 PM 37.4 °F 30.8 °F 28.4 °F 70% 29.88 in 10.0 mi NE 9.2 mph - N/A   Overcast
10:35 PM 35.6 °F 27.5 °F 26.6 °F 70% 29.87 in 10.0 mi NE 11.5 mph - N/A   Overcast
10:55 PM 35.6 °F 28.0 °F 26.6 °F 70% 29.87 in 10.0 mi NE 10.4 mph - N/A   Overcast
11:15 PM 35.6 °F 28.0 °F 26.6 °F 70% 29.87 in 10.0 mi NE 10.4 mph - N/A   Overcast
11:35 PM 35.6 °F 27.1 °F 26.6 °F 70% 29.88 in 10.0 mi NNE 12.7 mph - N/A   Overcast
11:55 PM 35.6 °F 27.5 °F 26.6 °F 70% 29.89 in 10.0 mi NNE 11.5 mph - N/A   Overcast